Regional Weather Roundup
Issued by NWS

Home | Current Version | Previous Version | Text Only | Print | Product List | Glossary Off
Versions: 1 2 3 4 5 6 7 8 9 10 11 12 13 14 15 16 17 18 19 20 21 22 23 24 25 26 27 28 29 30 31 32 33 34 35 36 37 38 39 40 41 42 43 44 45 46 47 48 49 50

806
ASUS43 KDTX 130910
RWRMI
MICHIGAN HOURLY REGIONAL WEATHER ROUNDUP
NATIONAL WEATHER SERVICE DETROIT/PONTIAC MI
400 AM EST SAT FEB 13 2016

NOTE: "FAIR" INDICATES FEW OR NO CLOUDS BELOW 12,000 FEET WITH NO
SIGNIFICANT WEATHER AND/OR OBSTRUCTION TO VISIBILITY.

MIZ047>049-052>055-059>063-066>070-074>076-081>083-131000-
SOUTHEAST LOWER MICHIGAN

CITY           SKY/WX    TMP DP  RH WIND       PRES   REMARKS
ADRIAN         CLEAR      4  -9  55 NW9       30.35R WCI -10
ALMA           CLEAR      5  -1  76 W7        30.33R WCI  -7
ANN ARBOR      CLEAR     -1 -10  65 W6        30.33R WCI -13
BAD AXE        MOCLDY     2  -7  66 NW10      30.29R WCI -14
CARO           CLEAR     -2  -9  71 N9        30.31R WCI -18
DETROIT CITY   PTCLDY     5  -5  63 NW8       30.32R WCI  -8
DETROIT        PTCLDY     4  -7  60 W9        30.34R WCI -10
FLINT          CLEAR      0 -10  63 W7        30.31R WCI -13
GROSSE ILE     PTCLDY     7  -6  56 W8        30.33R WCI  -6
HILLSDALE      PTCLDY     2  -8  63 NW9       30.31R WCI -13
HOWELL         PTCLDY     1  -8  65 W6        30.30R WCI -10

CITY           SKY/WX    TMP DP  RH WIND       PRES   REMARKS
JACKSON        CLEAR      1  -9  62 W7        30.33R WCI -12
LAMBERTVILLE   CLEAR      5  -7  59 W5        30.36R WCI  -4
LANSING        CLEAR      3  -5  69 W9        30.34R WCI -12
LAPEER         LGT SNOW   1  -2  84 NW5       30.29R WCI  -8
MASON          PTCLDY     1  -7  69 W5        30.33R WCI  -8
MONROE         CLEAR      5  -8  54 NW8       30.34R WCI  -8
MT. CLEMENS    PTCLDY     4  -5  65 NW8       30.29R WCI -10
PONTIAC        PTCLDY     0  -7  72 W8        30.28R WCI -14
PORT HOPE        N/A      5  -4  66 NW20G37   30.26R WCI -15
PORT HURON     CLEAR      1  -8  66 NW9       30.29R WCI -14
TRI CITIES     MOCLDY     3  -5  69 N7        30.34R WCI  -9
MIDLAND        CLOUDY     2  -4  77 CALM      30.34R HAZE
TROY           PTCLDY     6  -5  62 W9        30.33R WCI  -8
SAGINAW HB     CLEAR      1  -4  78 NW6       30.34R WCI -10
$$
MIZ043>046-050>051-056>058-064>065-071>073-077>080-131000-
SOUTHWEST LOWER MICHIGAN

CITY           SKY/WX    TMP DP  RH WIND       PRES   REMARKS
BATTLE CREEK   PTCLDY     0  -8  69 NW5       30.36R WCI -10
BENTON HARBOR  LGT SNOW  13   3  64 NW13G20   30.43R WCI  -2
BIG RAPIDS     LGT SNOW   2  -2  86 W6        30.30R WCI -10
COLDWATER      PTCLDY     1  -9  62 NW5       30.36S WCI  -9
FREMONT        CLOUDY     8   0  70 W5        30.36R WCI  -1
HOLLAND        LGT SNOW   8   4  83 CALM      30.40S VSB 1
GRAND RAPIDS   MOCLDY     5  -1  76 W9        30.37R WCI  -9
IONIA          FAIR       3  -3  76 W9        30.34S WCI -11
KALAMAZOO      PTCLDY    -6 -11  79 W6        30.38R WCI -19
LUDINGTON      LGT SNOW  10   1  67 NW15G21   30.38R WCI  -7
MARSHALL       CLEAR      4  -6  64 MISG      30.35R
MOUNT PLEASANT CLOUDY     6  -2  69 W7        30.31R WCI  -6
MUSKEGON       FLURRIES  10   2  69 NW14      30.40R WCI  -6
SOUTH HAVEN    LGT SNOW   9   5  82 N6        30.41R WCI  -1
$$
MIZ016>042-131000-
NORTHERN LOWER MICHIGAN

CITY           SKY/WX    TMP DP  RH WIND       PRES   REMARKS
ALPENA         LGT SNOW  -6 -12  75 NW7       30.33R WCI -20
BEAVER ISLAND  LGT SNOW  -3  -7  81 E8        30.33S WCI -18
BELLAIRE       CLOUDY    -5 -12  70 CALM      30.36R
CADILLAC       LGT SNOW   6   0  79 NW6       30.23S WCI  -5
CHARLEVOIX     MOCLDY    -5 -10  77 SE7       30.36R HAZE    WCI -19
FRANKFORT      CLOUDY    10  -1  61 N17       30.34S HAZE    WCI  -7
GAYLORD        CLEAR    -10 -16  74 NE8       30.24R WCI -26
GRAYLING       CLEAR    -16 -20  81 CALM      30.29R
HARBOR SPRINGS PTCLDY   -10 -16  73 E6        30.34R WCI -23
HOUGHTON LAKE  CLOUDY    -5 -11  75 NE6       30.29R WCI -18
MANISTEE       CLOUDY    10   0  61 N15G26    30.35R WCI  -6
OSCODA         CLEAR     -5 -12  71 N8        30.32R WCI -20
PELLSTON       CLOUDY   -10 -17  71 NE3       30.36R
ROGERS CITY    LGT SNOW  -5 -12  71 N12G20    30.35R WCI -23
TRAVERSE CITY  LGT SNOW   3  -3  76 E7        30.32R WCI  -9
$$
MIZ007>008-015-131000-
EASTERN UPPER MICHIGAN

CITY           SKY/WX    TMP DP  RH WIND       PRES   REMARKS
KINROSS        CLOUDY   -15 -24  64 CALM      30.34R
MACKINAC ISLAN CLEAR    -11 -21  61 N6        30.35R WCI -25
NEWBERRY       LGT SNOW  -9 -13  84 SE8       30.31R WCI -26
S. S. MARIE    PTCLDY   -13 -27  49 VRB5      30.34R WCI -25
MUNISING         N/A      7   2  80 N17G28    30.34R WCI -12
$$
MIZ004>006-011>014-085-131000-
CENTRAL UPPER MICHIGAN

CITY           SKY/WX    TMP DP  RH WIND       PRES   REMARKS
MANISTIQUE     LGT SNOW   4   0  83 W7        30.32R WCI  -8
ESCANABA       CLEAR      0  -8  71 NW13G18   30.39R WCI -18
MENOMINEE      CLEAR     -2  -9  71 W7        30.44R WCI -16
SAWYER-GWINN   LGT SNOW  -1  -5  81 NW13      30.32R WCI -19
$$
MIZ001>003-009>011-084-131000-
WESTERN UPPER MICHIGAN

CITY           SKY/WX    TMP DP  RH WIND       PRES   REMARKS
IRON MOUNTAIN  CLEAR    -11 -17  75 CALM      30.37R
HOUGHTON       LGT SNOW   1  -7  68 NW14      30.38R WCI -17
COPPER HARBOR    N/A      5   1  83 NE25G36   30.40R WCI -18
IRONWOOD       CLOUDY     0  -2  92 NW13      30.43R VSB 1   WCI -18
$$

ABBREVIATIONS USED IN REMARKS
   TC - TEMPERATURE IN CELSIUS
  WCI - WIND CHILL INDEX
   HX - HEAT INDEX
  VSB - VISIBILITY





USA.gov is the U.S. government's official web portal to all federal, state and local government web resources and services.